Tracking 31013 objects as of 10-Jul-2025
HD Live streaming from Space Station
objects crossing your sky now

STARLINK-4021

Track STARLINK-4021 now!
10-day predictions
STARLINK-4021 is classified as:


NORAD ID: 53149
Int'l Code: 2022-083T
Perigee: 546.1 km
Apogee: 547.8 km
Inclination: 53.2 °
Period: 95.4 minutes
Semi major axis: 6917 km
RCS: Unknown
Launch date: July 17, 2022
Source: United States (US)
Launch site: AIR FORCE EASTERN TEST RANGE (AFETR)
Your satellite tracking list
Your tracking list is empty




NASA's NSSDC Master Catalog

Two Line Element Set (TLE):
1 53149U 22083T   25190.68958220 -.00001700  00000-0 -88807-4 0  9999
2 53149  53.2170 175.1955 0001216  88.0568 272.0564 15.08828228164674
Source of the keplerian elements: AFSPC